Back to catalog

STARLINK-32564

AliveCommunicationsVLEO
NORAD 61924·PAYLOAD·🇺🇸 United States

Launched Nov 11, 2024 from Cape Canaveral Space Force Station

Loading…

Next Passes (next 24 hours)

TLE

FreshSource: CelesTrak SupGP

Epoch: Sep 14, 2026, 21:09 UTC

1 61924C 24207N   26257.88173611 -.00013999  00000+0 -50710-3 0  2579
2 61924  43.0020 297.1140 0001413 266.6559  42.9017 15.27581595    17

Track STARLINK-32564 in real time with AllMySat

Download on the App Store